Regional Weather Roundup
Issued by NWS Newport/Morehead, NC

Current Version | Previous Version | Text Only | Print | Product List | Glossary On
Versions: 1 2 3 4 5 6 7 8 9 10 11 12 13 14 15 16 17 18 19 20 21 22 23 24 25 26 27 28 29 30 31 32 33 34 35 36 37 38 39 40 41 42 43 44 45 46 47 48 49 50
000 ASUS42 KMHX 210710 RWRMHX WEATHER ROUNDUP FOR EASTERN NORTH CAROLINA NATIONAL WEATHER SERVICE NEWPORT/MOREHEAD CITY NC 300 AM EDT THU AUG 21 2014 NOTE: "FAIR" INDICATES FEW OR NO CLOUDS BELOW 12,000 FEET WITH NO SIGNIFICANT WEATHER AND/OR OBSTRUCTIONS TO VISIBILITY NCZ015>017-031-032-045>047-102-103-210800- NORTH COAST CITY SKY/WX TMP DP RH WIND PRES REMARKS EDENTON PTCLDY 75 73 95 CALM 29.99S ELIZABETH CITY PTCLDY 75 72 90 SE5 29.99F KITTY HAWK SUNNY 74 72 93 CALM 29.99F MANTEO CLEAR 75 72 88 CALM 30.00F $$ NCZ045>047-081-094-103-104-210800- CENTRAL COAST CITY SKY/WX TMP DP RH WIND PRES REMARKS FRISCO CLEAR 77 74 90 S5 30.00F SWANQUARTER N/A 79 N/A N/A SW8 29.94F $$ NCZ095-097-098-100-101-210800- SOUTHERN COAST CITY SKY/WX TMP DP RH WIND PRES REMARKS BEAUFORT CLEAR 79 76 90 S3 30.00F CEDAR ISLAND N/A 77 N/A N/A S2 30.03F JACKSONVILLE PTCLDY 73 73 100 CALM 30.00F FOG NEWPORT NOT AVBL PINEY ISLAND NOT AVBL WILMINGTON PTCLDY 75 73 93 CALM 30.00F $$ NCZ011>013-027>030-043-044-078>080-089-090>093-098-210800- COASTAL PLAIN CITY SKY/WX TMP DP RH WIND PRES REMARKS AHOSKIE MOCLDY 71 70 97 S3 29.98S CLINTON CLEAR 73 73 100 CALM 30.00F FOG ELIZABETHTOWN CLEAR 76 75 96 CALM 29.99F GOLDSBORO PTCLDY 75 74 98 CALM 29.98S GREENVILLE PTCLDY 77 73 88 SW5 30.00S HAVELOCK PTCLDY 74 73 97 SW3 30.01F FOG KENANSVILLE PTCLDY 71 70 95 CALM 30.00F KINSTON PTCLDY 74 73 97 S3 30.00F FOG NEW BERN CLEAR 77 74 90 CALM 30.01F FOG RICHLANDS PTCLDY 72 70 94 CALM 30.01S VSB 3/4 ROANOKE RAPIDS NOT AVBL ROCKY MOUNT MOCLDY 74 72 93 SW5 29.99F WASHINGTON PTCLDY 75 74 95 S5 29.99F WHITEVILLE CLEAR 74 73 93 CALM 29.99F $$ AMZ130-135-150-152-154-156-158-170-250-252-270-ANZ085-086-088-633-658-670-210800- MARINE OBSERVATIONS STATION/POSITION TIME TEMP WIND PRES WAVE SWELL AIR SEA DIR/SP/G HT/PER HT/PER (UTC) (F) (DEG/KT/KT) (MB) (FT/S) (FT/S) CHESAPEAKE LIGHT 0600 76 180/ 10/ 11 1016.7 BUOY 44014 0700 76 78 140/ 4/ 6 1015.8 3/ 6 2/ 6 DUCK 0700 77 79 150/ 5/ 6 1015.2 2E DUCK 0700 N/A 2/ 6 OREGON INLET 0700 76 81 130/ 4/ 5 1015.9 BUOY 44095 0700 80 N/A 3/ 6 20E OREGON INLET NOT AVBL HATTERAS CG 0700 79 81 180/ 2/ 6 1016.3 DIAMOND BUOY 0700 78 260/ 4/ 6 1016.0 3/ 8 3/ 8 CAPE LOOKOUT 0600 80 220/ 3/ 4 1016.2 BEAUFORT LAB 0700 80 83 210/ 4/ 6 1015.5 30 SE NEW RIVER 0600 81 82 220/ 4/ 6 1015.8 5 SE WRIGHTSVILL 0700 78 82 170/ 4/ 6 N/A BUOY 41002 0602 81 81 250/ 14/ 16 1018.1 3/ 7 2/ 7 BUOY 41004 0700 83 84 230/ 10/ 12 1015.6 2/ 4 2/ 8 $$

USA.gov is the U.S. government's official web portal to all federal, state and local government web resources and services.